Time,TemperatureF,DewpointF,PressureIn,WindDirection,WindDirectionDegrees,WindSpeedMPH,WindSpeedGustMPH,Humidity,HourlyPrecipIn,Conditions,Clouds,dailyrainin,SoftwareType,DateUTC
2013-05-08 00:00:00,61.9,-99.9,-100.00,North,-999,-999.0,-999.0,57,-99.99,,,-99.99,customPerl,2013-05-08 05:00:00,
2013-05-08 00:05:00,62.2,-99.9,-100.00,North,-999,-999.0,-999.0,58,-99.99,,,-99.99,customPerl,2013-05-08 05:05:00,
2013-05-08 00:10:00,62.3,-99.9,-100.00,North,-999,-999.0,-999.0,57,-99.99,,,-99.99,customPerl,2013-05-08 05:10:00,
2013-05-08 00:15:00,62.6,-99.9,-100.00,North,-999,-999.0,-999.0,53,-99.99,,,-99.99,customPerl,2013-05-08 05:15:00,
2013-05-08 00:20:00,62.0,-99.9,-100.00,North,-999,-999.0,-999.0,48,-99.99,,,-99.99,customPerl,2013-05-08 05:20:00,
2013-05-08 00:25:00,61.0,-99.9,-100.00,North,-999,-999.0,-999.0,48,-99.99,,,-99.99,customPerl,2013-05-08 05:25:00,
2013-05-08 00:30:00,59.8,-99.9,-100.00,North,-999,-999.0,-999.0,49,-99.99,,,-99.99,customPerl,2013-05-08 05:30:00,
2013-05-08 00:35:00,59.1,-99.9,-100.00,North,-999,-999.0,-999.0,50,-99.99,,,-99.99,customPerl,2013-05-08 05:35:00,
2013-05-08 00:40:00,58.9,-99.9,-100.00,North,-999,-999.0,-999.0,51,-99.99,,,-99.99,customPerl,2013-05-08 05:40:00,
2013-05-08 00:45:00,58.4,-99.9,-100.00,North,-999,-999.0,-999.0,51,-99.99,,,-99.99,customPerl,2013-05-08 05:45:00,
2013-05-08 00:50:00,57.8,-99.9,-100.00,North,-999,-999.0,-999.0,52,-99.99,,,-99.99,customPerl,2013-05-08 05:50:00,
2013-05-08 00:55:00,57.5,-99.9,-100.00,North,-999,-999.0,-999.0,53,-99.99,,,-99.99,customPerl,2013-05-08 05:55:00,
2013-05-08 01:00:00,57.1,-99.9,-100.00,North,-999,-999.0,-999.0,53,-99.99,,,-99.99,customPerl,2013-05-08 06:00:00,
2013-05-08 01:05:00,56.9,-99.9,-100.00,North,-999,-999.0,-999.0,53,-99.99,,,-99.99,customPerl,2013-05-08 06:05:00,
2013-05-08 01:10:00,56.9,-99.9,-100.00,North,-999,-999.0,-999.0,53,-99.99,,,-99.99,customPerl,2013-05-08 06:10:00,
2013-05-08 01:15:00,57.0,-99.9,-100.00,North,-999,-999.0,-999.0,53,-99.99,,,-99.99,customPerl,2013-05-08 06:15:00,
2013-05-08 01:20:00,56.9,-99.9,-100.00,North,-999,-999.0,-999.0,54,-99.99,,,-99.99,customPerl,2013-05-08 06:20:00,
2013-05-08 01:25:00,56.4,-99.9,-100.00,North,-999,-999.0,-999.0,54,-99.99,,,-99.99,customPerl,2013-05-08 06:25:00,
2013-05-08 01:30:00,56.4,-99.9,-100.00,North,-999,-999.0,-999.0,54,-99.99,,,-99.99,customPerl,2013-05-08 06:30:00,
2013-05-08 01:35:00,56.2,-99.9,-100.00,North,-999,-999.0,-999.0,54,-99.99,,,-99.99,customPerl,2013-05-08 06:35:00,
2013-05-08 01:40:00,56.1,-99.9,-100.00,North,-999,-999.0,-999.0,54,-99.99,,,-99.99,customPerl,2013-05-08 06:40:00,
2013-05-08 01:45:00,55.6,-99.9,-100.00,North,-999,-999.0,-999.0,55,-99.99,,,-99.99,customPerl,2013-05-08 06:45:00,
2013-05-08 01:50:00,55.6,-99.9,-100.00,North,-999,-999.0,-999.0,55,-99.99,,,-99.99,customPerl,2013-05-08 06:50:00,
2013-05-08 01:55:00,55.5,-99.9,-100.00,North,-999,-999.0,-999.0,56,-99.99,,,-99.99,customPerl,2013-05-08 06:55:00,
2013-05-08 02:00:00,55.5,-99.9,-100.00,North,-999,-999.0,-999.0,56,-99.99,,,-99.99,customPerl,2013-05-08 07:00:00,
2013-05-08 02:05:00,55.0,-99.9,-100.00,North,-999,-999.0,-999.0,57,-99.99,,,-99.99,customPerl,2013-05-08 07:05:00,
2013-05-08 02:10:00,54.8,-99.9,-100.00,North,-999,-999.0,-999.0,57,-99.99,,,-99.99,customPerl,2013-05-08 07:10:00,
2013-05-08 02:15:00,55.1,-99.9,-100.00,North,-999,-999.0,-999.0,57,-99.99,,,-99.99,customPerl,2013-05-08 07:15:00,
2013-05-08 02:20:00,55.1,-99.9,-100.00,North,-999,-999.0,-999.0,57,-99.99,,,-99.99,customPerl,2013-05-08 07:20:00,
2013-05-08 02:25:00,54.8,-99.9,-100.00,North,-999,-999.0,-999.0,57,-99.99,,,-99.99,customPerl,2013-05-08 07:25:00,
2013-05-08 02:30:00,54.8,-99.9,-100.00,North,-999,-999.0,-999.0,58,-99.99,,,-99.99,customPerl,2013-05-08 07:30:00,
2013-05-08 02:35:00,54.7,-99.9,-100.00,North,-999,-999.0,-999.0,58,-99.99,,,-99.99,customPerl,2013-05-08 07:35:00,
2013-05-08 02:40:00,54.7,-99.9,-100.00,North,-999,-999.0,-999.0,58,-99.99,,,-99.99,customPerl,2013-05-08 07:40:00,
2013-05-08 02:45:00,54.6,-99.9,-100.00,North,-999,-999.0,-999.0,58,-99.99,,,-99.99,customPerl,2013-05-08 07:45:00,
2013-05-08 02:50:00,54.4,-99.9,-100.00,North,-999,-999.0,-999.0,59,-99.99,,,-99.99,customPerl,2013-05-08 07:50:00,
2013-05-08 02:55:00,54.0,-99.9,-100.00,North,-999,-999.0,-999.0,60,-99.99,,,-99.99,customPerl,2013-05-08 07:55:00,
2013-05-08 03:00:00,53.9,-99.9,-100.00,North,-999,-999.0,-999.0,60,-99.99,,,-99.99,customPerl,2013-05-08 08:00:00,
2013-05-08 03:05:00,53.6,-99.9,-100.00,North,-999,-999.0,-999.0,61,-99.99,,,-99.99,customPerl,2013-05-08 08:05:00,
2013-05-08 03:10:00,53.3,-99.9,-100.00,North,-999,-999.0,-999.0,61,-99.99,,,-99.99,customPerl,2013-05-08 08:10:00,
2013-05-08 03:20:00,53.2,-99.9,-100.00,North,-999,-999.0,-999.0,62,-99.99,,,-99.99,customPerl,2013-05-08 08:20:00,
2013-05-08 03:30:00,52.9,-99.9,-100.00,North,-999,-999.0,-999.0,61,-99.99,,,-99.99,customPerl,2013-05-08 08:30:00,
2013-05-08 03:35:00,52.8,-99.9,-100.00,North,-999,-999.0,-999.0,61,-99.99,,,-99.99,customPerl,2013-05-08 08:35:00,
2013-05-08 03:40:00,52.5,-99.9,-100.00,North,-999,-999.0,-999.0,61,-99.99,,,-99.99,customPerl,2013-05-08 08:40:00,
2013-05-08 03:45:00,52.7,-99.9,-100.00,North,-999,-999.0,-999.0,61,-99.99,,,-99.99,customPerl,2013-05-08 08:45:00,
2013-05-08 03:50:00,52.2,-99.9,-100.00,North,-999,-999.0,-999.0,60,-99.99,,,-99.99,customPerl,2013-05-08 08:50:00,
2013-05-08 03:55:00,52.1,-99.9,-100.00,North,-999,-999.0,-999.0,60,-99.99,,,-99.99,customPerl,2013-05-08 08:55:00,
2013-05-08 04:00:00,51.8,-99.9,-100.00,North,-999,-999.0,-999.0,61,-99.99,,,-99.99,customPerl,2013-05-08 09:00:00,
2013-05-08 04:05:00,51.8,-99.9,-100.00,North,-999,-999.0,-999.0,61,-99.99,,,-99.99,customPerl,2013-05-08 09:05:00,
2013-05-08 04:10:00,51.8,-99.9,-100.00,North,-999,-999.0,-999.0,60,-99.99,,,-99.99,customPerl,2013-05-08 09:10:00,
2013-05-08 04:15:00,51.7,-99.9,-100.00,North,-999,-999.0,-999.0,60,-99.99,,,-99.99,customPerl,2013-05-08 09:15:00,
2013-05-08 04:20:00,51.3,-99.9,-100.00,North,-999,-999.0,-999.0,60,-99.99,,,-99.99,customPerl,2013-05-08 09:20:00,
2013-05-08 04:25:00,51.2,-99.9,-100.00,North,-999,-999.0,-999.0,59,-99.99,,,-99.99,customPerl,2013-05-08 09:25:00,
2013-05-08 04:30:00,51.1,-99.9,-100.00,North,-999,-999.0,-999.0,59,-99.99,,,-99.99,customPerl,2013-05-08 09:30:00,
2013-05-08 04:35:00,51.0,-99.9,-100.00,North,-999,-999.0,-999.0,59,-99.99,,,-99.99,customPerl,2013-05-08 09:35:00,
2013-05-08 04:40:00,50.9,-99.9,-100.00,North,-999,-999.0,-999.0,59,-99.99,,,-99.99,customPerl,2013-05-08 09:40:00,
2013-05-08 04:45:00,50.6,-99.9,-100.00,North,-999,-999.0,-999.0,59,-99.99,,,-99.99,customPerl,2013-05-08 09:45:00,
2013-05-08 04:50:00,50.3,-99.9,-100.00,North,-999,-999.0,-999.0,59,-99.99,,,-99.99,customPerl,2013-05-08 09:50:00,
2013-05-08 04:55:00,50.1,-99.9,-100.00,North,-999,-999.0,-999.0,59,-99.99,,,-99.99,customPerl,2013-05-08 09:55:00,
2013-05-08 05:00:00,49.9,-99.9,-100.00,North,-999,-999.0,-999.0,59,-99.99,,,-99.99,customPerl,2013-05-08 10:00:00,
2013-05-08 05:05:00,50.0,-99.9,-100.00,North,-999,-999.0,-999.0,58,-99.99,,,-99.99,customPerl,2013-05-08 10:05:00,
2013-05-08 05:10:00,49.8,-99.9,-100.00,North,-999,-999.0,-999.0,57,-99.99,,,-99.99,customPerl,2013-05-08 10:10:00,
2013-05-08 05:15:00,49.7,-99.9,-100.00,North,-999,-999.0,-999.0,58,-99.99,,,-99.99,customPerl,2013-05-08 10:15:00,
2013-05-08 05:20:00,49.8,-99.9,-100.00,North,-999,-999.0,-999.0,57,-99.99,,,-99.99,customPerl,2013-05-08 10:20:00,
2013-05-08 05:25:00,49.7,-99.9,-100.00,North,-999,-999.0,-999.0,57,-99.99,,,-99.99,customPerl,2013-05-08 10:25:00,
2013-05-08 05:30:00,49.1,-99.9,-100.00,North,-999,-999.0,-999.0,59,-99.99,,,-99.99,customPerl,2013-05-08 10:30:00,
2013-05-08 05:35:00,48.9,-99.9,-100.00,North,-999,-999.0,-999.0,60,-99.99,,,-99.99,customPerl,2013-05-08 10:35:00,
2013-05-08 05:40:00,48.9,-99.9,-100.00,North,-999,-999.0,-999.0,60,-99.99,,,-99.99,customPerl,2013-05-08 10:40:00,
2013-05-08 05:45:00,48.9,-99.9,-100.00,North,-999,-999.0,-999.0,60,-99.99,,,-99.99,customPerl,2013-05-08 10:45:00,
2013-05-08 05:50:00,48.8,-99.9,-100.00,North,-999,-999.0,-999.0,59,-99.99,,,-99.99,customPerl,2013-05-08 10:50:00,
2013-05-08 05:55:00,48.8,-99.9,-100.00,North,-999,-999.0,-999.0,59,-99.99,,,-99.99,customPerl,2013-05-08 10:55:00,
2013-05-08 06:00:00,48.7,-99.9,-100.00,North,-999,-999.0,-999.0,59,-99.99,,,-99.99,customPerl,2013-05-08 11:00:00,
2013-05-08 06:05:00,48.5,-99.9,-100.00,North,-999,-999.0,-999.0,60,-99.99,,,-99.99,customPerl,2013-05-08 11:05:00,
2013-05-08 06:10:00,48.3,-99.9,-100.00,North,-999,-999.0,-999.0,60,-99.99,,,-99.99,customPerl,2013-05-08 11:10:00,
2013-05-08 06:15:00,48.3,-99.9,-100.00,North,-999,-999.0,-999.0,60,-99.99,,,-99.99,customPerl,2013-05-08 11:15:00,
2013-05-08 06:20:00,48.0,-99.9,-100.00,North,-999,-999.0,-999.0,61,-99.99,,,-99.99,customPerl,2013-05-08 11:20:00,
2013-05-08 06:25:00,48.0,-99.9,-100.00,North,-999,-999.0,-999.0,61,-99.99,,,-99.99,customPerl,2013-05-08 11:25:00,
2013-05-08 06:30:00,48.0,-99.9,-100.00,North,-999,-999.0,-999.0,61,-99.99,,,-99.99,customPerl,2013-05-08 11:30:00,
2013-05-08 06:35:00,47.8,-99.9,-100.00,North,-999,-999.0,-999.0,62,-99.99,,,-99.99,customPerl,2013-05-08 11:35:00,
2013-05-08 06:40:00,47.8,-99.9,-100.00,North,-999,-999.0,-999.0,62,-99.99,,,-99.99,customPerl,2013-05-08 11:40:00,
2013-05-08 06:45:00,47.5,-99.9,-100.00,North,-999,-999.0,-999.0,63,-99.99,,,-99.99,customPerl,2013-05-08 11:45:00,
2013-05-08 06:50:00,47.4,-99.9,-100.00,North,-999,-999.0,-999.0,62,-99.99,,,-99.99,customPerl,2013-05-08 11:50:00,
2013-05-08 06:55:00,47.4,-99.9,-100.00,North,-999,-999.0,-999.0,62,-99.99,,,-99.99,customPerl,2013-05-08 11:55:00,
2013-05-08 07:00:00,47.4,-99.9,-100.00,North,-999,-999.0,-999.0,62,-99.99,,,-99.99,customPerl,2013-05-08 12:00:00,
2013-05-08 07:10:00,47.0,-99.9,-100.00,North,-999,-999.0,-999.0,60,-99.99,,,-99.99,customPerl,2013-05-08 12:10:00,
2013-05-08 07:15:00,46.6,-99.9,-100.00,North,-999,-999.0,-999.0,61,-99.99,,,-99.99,customPerl,2013-05-08 12:15:00,
2013-05-08 07:20:00,46.2,-99.9,-100.00,North,-999,-999.0,-999.0,62,-99.99,,,-99.99,customPerl,2013-05-08 12:20:00,
2013-05-08 07:25:00,46.2,-99.9,-100.00,North,-999,-999.0,-999.0,61,-99.99,,,-99.99,customPerl,2013-05-08 12:25:00,
2013-05-08 07:30:00,46.0,-99.9,-100.00,North,-999,-999.0,-999.0,61,-99.99,,,-99.99,customPerl,2013-05-08 12:30:00,
2013-05-08 07:35:00,45.8,-99.9,-100.00,North,-999,-999.0,-999.0,61,-99.99,,,-99.99,customPerl,2013-05-08 12:35:00,
2013-05-08 07:40:00,45.5,-99.9,-100.00,North,-999,-999.0,-999.0,61,-99.99,,,-99.99,customPerl,2013-05-08 12:40:00,
2013-05-08 07:45:00,45.6,-99.9,-100.00,North,-999,-999.0,-999.0,62,-99.99,,,-99.99,customPerl,2013-05-08 12:45:00,
2013-05-08 07:50:00,45.5,-99.9,-100.00,North,-999,-999.0,-999.0,61,-99.99,,,-99.99,customPerl,2013-05-08 12:50:00,
2013-05-08 07:55:00,45.2,-99.9,-100.00,North,-999,-999.0,-999.0,62,-99.99,,,-99.99,customPerl,2013-05-08 12:55:00,
2013-05-08 08:00:00,45.2,-99.9,-100.00,North,-999,-999.0,-999.0,62,-99.99,,,-99.99,customPerl,2013-05-08 13:00:00,
2013-05-08 08:05:00,44.6,-99.9,-100.00,North,-999,-999.0,-999.0,63,-99.99,,,-99.99,customPerl,2013-05-08 13:05:00,
2013-05-08 08:10:00,44.9,-99.9,-100.00,North,-999,-999.0,-999.0,62,-99.99,,,-99.99,customPerl,2013-05-08 13:10:00,
2013-05-08 08:15:00,44.8,-99.9,-100.00,North,-999,-999.0,-999.0,62,-99.99,,,-99.99,customPerl,2013-05-08 13:15:00,
2013-05-08 08:20:00,44.5,-99.9,-100.00,North,-999,-999.0,-999.0,63,-99.99,,,-99.99,customPerl,2013-05-08 13:20:00,
2013-05-08 08:25:00,44.7,-99.9,-100.00,North,-999,-999.0,-999.0,63,-99.99,,,-99.99,customPerl,2013-05-08 13:25:00,
2013-05-08 08:30:00,44.9,-99.9,-100.00,North,-999,-999.0,-999.0,63,-99.99,,,-99.99,customPerl,2013-05-08 13:30:00,
2013-05-08 08:35:00,44.7,-99.9,-100.00,North,-999,-999.0,-999.0,62,-99.99,,,-99.99,customPerl,2013-05-08 13:35:00,
2013-05-08 08:40:00,44.5,-99.9,-100.00,North,-999,-999.0,-999.0,63,-99.99,,,-99.99,customPerl,2013-05-08 13:40:00,
2013-05-08 08:45:00,44.5,-99.9,-100.00,North,-999,-999.0,-999.0,64,-99.99,,,-99.99,customPerl,2013-05-08 13:45:00,
2013-05-08 08:50:00,44.6,-99.9,-100.00,North,-999,-999.0,-999.0,63,-99.99,,,-99.99,customPerl,2013-05-08 13:50:00,
2013-05-08 08:55:00,44.8,-99.9,-100.00,North,-999,-999.0,-999.0,63,-99.99,,,-99.99,customPerl,2013-05-08 13:55:00,
2013-05-08 09:00:00,44.8,-99.9,-100.00,North,-999,-999.0,-999.0,63,-99.99,,,-99.99,customPerl,2013-05-08 14:00:00,
2013-05-08 09:05:00,44.8,-99.9,-100.00,North,-999,-999.0,-999.0,63,-99.99,,,-99.99,customPerl,2013-05-08 14:05:00,
2013-05-08 09:10:00,45.5,-99.9,-100.00,North,-999,-999.0,-999.0,61,-99.99,,,-99.99,customPerl,2013-05-08 14:10:00,
2013-05-08 09:15:00,46.1,-99.9,-100.00,North,-999,-999.0,-999.0,61,-99.99,,,-99.99,customPerl,2013-05-08 14:15:00,
2013-05-08 09:20:00,47.3,-99.9,-100.00,North,-999,-999.0,-999.0,59,-99.99,,,-99.99,customPerl,2013-05-08 14:20:00,
2013-05-08 09:25:00,47.8,-99.9,-100.00,North,-999,-999.0,-999.0,57,-99.99,,,-99.99,customPerl,2013-05-08 14:25:00,
2013-05-08 09:30:00,48.1,-99.9,-100.00,North,-999,-999.0,-999.0,57,-99.99,,,-99.99,customPerl,2013-05-08 14:30:00,
2013-05-08 09:40:00,49.2,-99.9,-100.00,North,-999,-999.0,-999.0,55,-99.99,,,-99.99,customPerl,2013-05-08 14:40:00,
2013-05-08 09:45:00,50.0,-99.9,-100.00,North,-999,-999.0,-999.0,53,-99.99,,,-99.99,customPerl,2013-05-08 14:45:00,
2013-05-08 09:50:00,50.0,-99.9,-100.00,North,-999,-999.0,-999.0,54,-99.99,,,-99.99,customPerl,2013-05-08 14:50:00,
2013-05-08 09:55:00,50.6,-99.9,-100.00,North,-999,-999.0,-999.0,53,-99.99,,,-99.99,customPerl,2013-05-08 14:55:00,
2013-05-08 10:00:00,50.8,-99.9,-100.00,North,-999,-999.0,-999.0,52,-99.99,,,-99.99,customPerl,2013-05-08 15:00:00,
2013-05-08 10:05:00,50.2,-99.9,-100.00,North,-999,-999.0,-999.0,53,-99.99,,,-99.99,customPerl,2013-05-08 15:05:00,
2013-05-08 10:10:00,51.2,-99.9,-100.00,North,-999,-999.0,-999.0,51,-99.99,,,-99.99,customPerl,2013-05-08 15:10:00,
2013-05-08 10:15:00,51.3,-99.9,-100.00,North,-999,-999.0,-999.0,52,-99.99,,,-99.99,customPerl,2013-05-08 15:15:00,
2013-05-08 10:20:00,51.3,-99.9,-100.00,North,-999,-999.0,-999.0,52,-99.99,,,-99.99,customPerl,2013-05-08 15:20:00,
2013-05-08 10:25:00,52.7,-99.9,-100.00,North,-999,-999.0,-999.0,50,-99.99,,,-99.99,customPerl,2013-05-08 15:25:00,
2013-05-08 10:30:00,52.9,-99.9,-100.00,North,-999,-999.0,-999.0,50,-99.99,,,-99.99,customPerl,2013-05-08 15:30:00,
2013-05-08 10:35:00,53.3,-99.9,-100.00,North,-999,-999.0,-999.0,49,-99.99,,,-99.99,customPerl,2013-05-08 15:35:00,
2013-05-08 10:40:00,54.2,-99.9,-100.00,North,-999,-999.0,-999.0,48,-99.99,,,-99.99,customPerl,2013-05-08 15:40:00,
2013-05-08 10:45:00,53.9,-99.9,-100.00,North,-999,-999.0,-999.0,47,-99.99,,,-99.99,customPerl,2013-05-08 15:45:00,
2013-05-08 10:50:00,53.8,-99.9,-100.00,North,-999,-999.0,-999.0,47,-99.99,,,-99.99,customPerl,2013-05-08 15:50:00,
2013-05-08 10:55:00,53.5,-99.9,-100.00,North,-999,-999.0,-999.0,49,-99.99,,,-99.99,customPerl,2013-05-08 15:55:00,
2013-05-08 11:00:00,54.8,-99.9,-100.00,North,-999,-999.0,-999.0,47,-99.99,,,-99.99,customPerl,2013-05-08 16:00:00,
2013-05-08 11:05:00,55.2,-99.9,-100.00,North,-999,-999.0,-999.0,47,-99.99,,,-99.99,customPerl,2013-05-08 16:05:00,
2013-05-08 11:10:00,53.4,-99.9,-100.00,North,-999,-999.0,-999.0,48,-99.99,,,-99.99,customPerl,2013-05-08 16:10:00,
2013-05-08 11:15:00,54.5,-99.9,-100.00,North,-999,-999.0,-999.0,47,-99.99,,,-99.99,customPerl,2013-05-08 16:15:00,
2013-05-08 11:20:00,54.0,-99.9,-100.00,North,-999,-999.0,-999.0,47,-99.99,,,-99.99,customPerl,2013-05-08 16:20:00,
2013-05-08 11:25:00,54.2,-99.9,-100.00,North,-999,-999.0,-999.0,46,-99.99,,,-99.99,customPerl,2013-05-08 16:25:00,
2013-05-08 11:30:00,54.3,-99.9,-100.00,North,-999,-999.0,-999.0,46,-99.99,,,-99.99,customPerl,2013-05-08 16:30:00,
2013-05-08 11:35:00,54.0,-99.9,-100.00,North,-999,-999.0,-999.0,46,-99.99,,,-99.99,customPerl,2013-05-08 16:35:00,
2013-05-08 11:40:00,54.0,-99.9,-100.00,North,-999,-999.0,-999.0,46,-99.99,,,-99.99,customPerl,2013-05-08 16:40:00,
2013-05-08 11:45:00,54.0,-99.9,-100.00,North,-999,-999.0,-999.0,45,-99.99,,,-99.99,customPerl,2013-05-08 16:45:00,
2013-05-08 11:50:00,53.7,-99.9,-100.00,North,-999,-999.0,-999.0,46,-99.99,,,-99.99,customPerl,2013-05-08 16:50:00,
2013-05-08 11:55:00,54.6,-99.9,-100.00,North,-999,-999.0,-999.0,44,-99.99,,,-99.99,customPerl,2013-05-08 16:55:00,
2013-05-08 12:00:00,54.8,-99.9,-100.00,North,-999,-999.0,-999.0,46,-99.99,,,-99.99,customPerl,2013-05-08 17:00:00,
2013-05-08 12:05:00,55.7,-99.9,-100.00,North,-999,-999.0,-999.0,44,-99.99,,,-99.99,customPerl,2013-05-08 17:05:00,
2013-05-08 12:10:00,56.1,-99.9,-100.00,North,-999,-999.0,-999.0,42,-99.99,,,-99.99,customPerl,2013-05-08 17:10:00,
2013-05-08 12:15:00,55.0,-99.9,-100.00,North,-999,-999.0,-999.0,43,-99.99,,,-99.99,customPerl,2013-05-08 17:15:00,
2013-05-08 12:20:00,55.0,-99.9,-100.00,North,-999,-999.0,-999.0,45,-99.99,,,-99.99,customPerl,2013-05-08 17:20:00,
2013-05-08 12:25:00,56.0,-99.9,-100.00,North,-999,-999.0,-999.0,42,-99.99,,,-99.99,customPerl,2013-05-08 17:25:00,
2013-05-08 12:30:00,55.7,-99.9,-100.00,North,-999,-999.0,-999.0,43,-99.99,,,-99.99,customPerl,2013-05-08 17:30:00,
2013-05-08 12:35:00,55.6,-99.9,-100.00,North,-999,-999.0,-999.0,42,-99.99,,,-99.99,customPerl,2013-05-08 17:35:00,
2013-05-08 12:40:00,56.3,-99.9,-100.00,North,-999,-999.0,-999.0,42,-99.99,,,-99.99,customPerl,2013-05-08 17:40:00,
2013-05-08 12:45:00,55.5,-99.9,-100.00,North,-999,-999.0,-999.0,40,-99.99,,,-99.99,customPerl,2013-05-08 17:45:00,
2013-05-08 12:50:00,54.6,-99.9,-100.00,North,-999,-999.0,-999.0,42,-99.99,,,-99.99,customPerl,2013-05-08 17:50:00,
2013-05-08 12:55:00,54.0,-99.9,-100.00,North,-999,-999.0,-999.0,43,-99.99,,,-99.99,customPerl,2013-05-08 17:55:00,
2013-05-08 13:00:00,53.9,-99.9,-100.00,North,-999,-999.0,-999.0,42,-99.99,,,-99.99,customPerl,2013-05-08 18:00:00,
2013-05-08 13:05:00,55.1,-99.9,-100.00,North,-999,-999.0,-999.0,42,-99.99,,,-99.99,customPerl,2013-05-08 18:05:00,
2013-05-08 13:10:00,56.3,-99.9,-100.00,North,-999,-999.0,-999.0,40,-99.99,,,-99.99,customPerl,2013-05-08 18:10:00,
2013-05-08 13:15:00,56.2,-99.9,-100.00,North,-999,-999.0,-999.0,40,-99.99,,,-99.99,customPerl,2013-05-08 18:15:00,
2013-05-08 13:20:00,56.0,-99.9,-100.00,North,-999,-999.0,-999.0,41,-99.99,,,-99.99,customPerl,2013-05-08 18:20:00,
2013-05-08 13:25:00,56.0,-99.9,-100.00,North,-999,-999.0,-999.0,41,-99.99,,,-99.99,customPerl,2013-05-08 18:25:00,
2013-05-08 13:30:00,56.4,-99.9,-100.00,North,-999,-999.0,-999.0,40,-99.99,,,-99.99,customPerl,2013-05-08 18:30:00,
2013-05-08 13:35:00,56.4,-99.9,-100.00,North,-999,-999.0,-999.0,39,-99.99,,,-99.99,customPerl,2013-05-08 18:35:00,
2013-05-08 13:40:00,56.6,-99.9,-100.00,North,-999,-999.0,-999.0,38,-99.99,,,-99.99,customPerl,2013-05-08 18:40:00,
2013-05-08 13:45:00,56.2,-99.9,-100.00,North,-999,-999.0,-999.0,39,-99.99,,,-99.99,customPerl,2013-05-08 18:45:00,
2013-05-08 13:50:00,56.3,-99.9,-100.00,North,-999,-999.0,-999.0,40,-99.99,,,-99.99,customPerl,2013-05-08 18:50:00,
2013-05-08 13:55:00,55.7,-99.9,-100.00,North,-999,-999.0,-999.0,40,-99.99,,,-99.99,customPerl,2013-05-08 18:55:00,
2013-05-08 14:00:00,56.4,-99.9,-100.00,North,-999,-999.0,-999.0,40,-99.99,,,-99.99,customPerl,2013-05-08 19:00:00,
2013-05-08 14:05:00,57.1,-99.9,-100.00,North,-999,-999.0,-999.0,40,-99.99,,,-99.99,customPerl,2013-05-08 19:05:00,
2013-05-08 14:10:00,56.1,-99.9,-100.00,North,-999,-999.0,-999.0,39,-99.99,,,-99.99,customPerl,2013-05-08 19:10:00,
2013-05-08 14:15:00,56.4,-99.9,-100.00,North,-999,-999.0,-999.0,40,-99.99,,,-99.99,customPerl,2013-05-08 19:15:00,
2013-05-08 14:20:00,56.0,-99.9,-100.00,North,-999,-999.0,-999.0,39,-99.99,,,-99.99,customPerl,2013-05-08 19:20:00,
2013-05-08 14:25:00,56.5,-99.9,-100.00,North,-999,-999.0,-999.0,40,-99.99,,,-99.99,customPerl,2013-05-08 19:25:00,
2013-05-08 14:30:00,56.0,-99.9,-100.00,North,-999,-999.0,-999.0,39,-99.99,,,-99.99,customPerl,2013-05-08 19:30:00,
2013-05-08 14:35:00,56.1,-99.9,-100.00,North,-999,-999.0,-999.0,40,-99.99,,,-99.99,customPerl,2013-05-08 19:35:00,
2013-05-08 14:40:00,55.8,-99.9,-100.00,North,-999,-999.0,-999.0,40,-99.99,,,-99.99,customPerl,2013-05-08 19:40:00,
2013-05-08 14:45:00,57.0,-99.9,-100.00,North,-999,-999.0,-999.0,40,-99.99,,,-99.99,customPerl,2013-05-08 19:45:00,
2013-05-08 14:50:00,57.3,-99.9,-100.00,North,-999,-999.0,-999.0,38,-99.99,,,-99.99,customPerl,2013-05-08 19:50:00,
2013-05-08 14:55:00,56.1,-99.9,-100.00,North,-999,-999.0,-999.0,38,-99.99,,,-99.99,customPerl,2013-05-08 19:55:00,
2013-05-08 15:00:00,56.2,-99.9,-100.00,North,-999,-999.0,-999.0,40,-99.99,,,-99.99,customPerl,2013-05-08 20:00:00,
2013-05-08 15:05:00,56.5,-99.9,-100.00,North,-999,-999.0,-999.0,39,-99.99,,,-99.99,customPerl,2013-05-08 20:05:00,
2013-05-08 15:10:00,56.2,-99.9,-100.00,North,-999,-999.0,-999.0,38,-99.99,,,-99.99,customPerl,2013-05-08 20:10:00,
2013-05-08 15:15:00,56.2,-99.9,-100.00,North,-999,-999.0,-999.0,39,-99.99,,,-99.99,customPerl,2013-05-08 20:15:00,
2013-05-08 15:20:00,56.4,-99.9,-100.00,North,-999,-999.0,-999.0,38,-99.99,,,-99.99,customPerl,2013-05-08 20:20:00,
2013-05-08 15:25:00,57.0,-99.9,-100.00,North,-999,-999.0,-999.0,36,-99.99,,,-99.99,customPerl,2013-05-08 20:25:00,
2013-05-08 15:30:00,57.0,-99.9,-100.00,North,-999,-999.0,-999.0,36,-99.99,,,-99.99,customPerl,2013-05-08 20:30:00,
2013-05-08 15:35:00,56.8,-99.9,-100.00,North,-999,-999.0,-999.0,36,-99.99,,,-99.99,customPerl,2013-05-08 20:35:00,
2013-05-08 15:40:00,56.8,-99.9,-100.00,North,-999,-999.0,-999.0,36,-99.99,,,-99.99,customPerl,2013-05-08 20:40:00,
2013-05-08 15:45:00,56.8,-99.9,-100.00,North,-999,-999.0,-999.0,36,-99.99,,,-99.99,customPerl,2013-05-08 20:45:00,
2013-05-08 15:50:00,56.4,-99.9,-100.00,North,-999,-999.0,-999.0,36,-99.99,,,-99.99,customPerl,2013-05-08 20:50:00,
2013-05-08 15:55:00,56.5,-99.9,-100.00,North,-999,-999.0,-999.0,36,-99.99,,,-99.99,customPerl,2013-05-08 20:55:00,
2013-05-08 16:00:00,56.9,-99.9,-100.00,North,-999,-999.0,-999.0,36,-99.99,,,-99.99,customPerl,2013-05-08 21:00:00,
2013-05-08 16:05:00,56.1,-99.9,-100.00,North,-999,-999.0,-999.0,36,-99.99,,,-99.99,customPerl,2013-05-08 21:05:00,
2013-05-08 16:10:00,56.0,-99.9,-100.00,North,-999,-999.0,-999.0,35,-99.99,,,-99.99,customPerl,2013-05-08 21:10:00,
2013-05-08 16:15:00,55.7,-99.9,-100.00,North,-999,-999.0,-999.0,36,-99.99,,,-99.99,customPerl,2013-05-08 21:15:00,
2013-05-08 16:20:00,55.2,-99.9,-100.00,North,-999,-999.0,-999.0,36,-99.99,,,-99.99,customPerl,2013-05-08 21:20:00,
2013-05-08 16:25:00,56.0,-99.9,-100.00,North,-999,-999.0,-999.0,35,-99.99,,,-99.99,customPerl,2013-05-08 21:25:00,
2013-05-08 16:30:00,55.1,-99.9,-100.00,North,-999,-999.0,-999.0,35,-99.99,,,-99.99,customPerl,2013-05-08 21:30:00,
2013-05-08 16:35:00,55.7,-99.9,-100.00,North,-999,-999.0,-999.0,35,-99.99,,,-99.99,customPerl,2013-05-08 21:35:00,
2013-05-08 16:40:00,55.4,-99.9,-100.00,North,-999,-999.0,-999.0,35,-99.99,,,-99.99,customPerl,2013-05-08 21:40:00,
2013-05-08 16:45:00,56.3,-99.9,-100.00,North,-999,-999.0,-999.0,35,-99.99,,,-99.99,customPerl,2013-05-08 21:45:00,
2013-05-08 16:50:00,56.5,-99.9,-100.00,North,-999,-999.0,-999.0,34,-99.99,,,-99.99,customPerl,2013-05-08 21:50:00,
2013-05-08 16:55:00,56.9,-99.9,-100.00,North,-999,-999.0,-999.0,33,-99.99,,,-99.99,customPerl,2013-05-08 21:55:00,
2013-05-08 17:00:00,56.6,-99.9,-100.00,North,-999,-999.0,-999.0,34,-99.99,,,-99.99,customPerl,2013-05-08 22:00:00,
2013-05-08 17:05:00,56.4,-99.9,-100.00,North,-999,-999.0,-999.0,34,-99.99,,,-99.99,customPerl,2013-05-08 22:05:00,
2013-05-08 17:10:00,56.2,-99.9,-100.00,North,-999,-999.0,-999.0,33,-99.99,,,-99.99,customPerl,2013-05-08 22:10:00,
2013-05-08 17:15:00,56.2,-99.9,-100.00,North,-999,-999.0,-999.0,33,-99.99,,,-99.99,customPerl,2013-05-08 22:15:00,
2013-05-08 17:20:00,56.4,-99.9,-100.00,North,-999,-999.0,-999.0,33,-99.99,,,-99.99,customPerl,2013-05-08 22:20:00,
2013-05-08 17:25:00,56.8,-99.9,-100.00,North,-999,-999.0,-999.0,32,-99.99,,,-99.99,customPerl,2013-05-08 22:25:00,
2013-05-08 17:30:00,56.6,-99.9,-100.00,North,-999,-999.0,-999.0,33,-99.99,,,-99.99,customPerl,2013-05-08 22:30:00,
2013-05-08 17:35:00,56.9,-99.9,-100.00,North,-999,-999.0,-999.0,32,-99.99,,,-99.99,customPerl,2013-05-08 22:35:00,
2013-05-08 17:40:00,56.3,-99.9,-100.00,North,-999,-999.0,-999.0,32,-99.99,,,-99.99,customPerl,2013-05-08 22:40:00,
2013-05-08 17:45:00,55.7,-99.9,-100.00,North,-999,-999.0,-999.0,34,-99.99,,,-99.99,customPerl,2013-05-08 22:45:00,
2013-05-08 17:50:00,55.4,-99.9,-100.00,North,-999,-999.0,-999.0,34,-99.99,,,-99.99,customPerl,2013-05-08 22:50:00,
2013-05-08 17:55:00,55.7,-99.9,-100.00,North,-999,-999.0,-999.0,34,-99.99,,,-99.99,customPerl,2013-05-08 22:55:00,
2013-05-08 18:00:00,56.1,-99.9,-100.00,North,-999,-999.0,-999.0,34,-99.99,,,-99.99,customPerl,2013-05-08 23:00:00,
2013-05-08 18:10:00,55.8,-99.9,-100.00,North,-999,-999.0,-999.0,33,-99.99,,,-99.99,customPerl,2013-05-08 23:10:00,
2013-05-08 18:15:00,55.6,-99.9,-100.00,North,-999,-999.0,-999.0,33,-99.99,,,-99.99,customPerl,2013-05-08 23:15:00,
2013-05-08 18:20:00,55.7,-99.9,-100.00,North,-999,-999.0,-999.0,33,-99.99,,,-99.99,customPerl,2013-05-08 23:20:00,
2013-05-08 18:25:00,55.7,-99.9,-100.00,North,-999,-999.0,-999.0,33,-99.99,,,-99.99,customPerl,2013-05-08 23:25:00,
2013-05-08 18:30:00,55.7,-99.9,-100.00,North,-999,-999.0,-999.0,33,-99.99,,,-99.99,customPerl,2013-05-08 23:30:00,
2013-05-08 18:35:00,55.5,-99.9,-100.00,North,-999,-999.0,-999.0,33,-99.99,,,-99.99,customPerl,2013-05-08 23:35:00,
2013-05-08 18:40:00,55.3,-99.9,-100.00,North,-999,-999.0,-999.0,33,-99.99,,,-99.99,customPerl,2013-05-08 23:40:00,
2013-05-08 18:45:00,55.2,-99.9,-100.00,North,-999,-999.0,-999.0,33,-99.99,,,-99.99,customPerl,2013-05-08 23:45:00,
2013-05-08 18:50:00,55.0,-99.9,-100.00,North,-999,-999.0,-999.0,34,-99.99,,,-99.99,customPerl,2013-05-08 23:50:00,
2013-05-08 18:55:00,55.0,-99.9,-100.00,North,-999,-999.0,-999.0,33,-99.99,,,-99.99,customPerl,2013-05-08 23:55:00,
2013-05-08 19:00:00,54.7,-99.9,-100.00,North,-999,-999.0,-999.0,34,-99.99,,,-99.99,customPerl,2013-05-09 00:00:00,
2013-05-08 19:05:00,54.6,-99.9,-100.00,North,-999,-999.0,-999.0,34,-99.99,,,-99.99,customPerl,2013-05-09 00:05:00,
2013-05-08 19:10:00,54.5,-99.9,-100.00,North,-999,-999.0,-999.0,34,-99.99,,,-99.99,customPerl,2013-05-09 00:10:00,
2013-05-08 19:15:00,54.4,-99.9,-100.00,North,-999,-999.0,-999.0,34,-99.99,,,-99.99,customPerl,2013-05-09 00:15:00,
2013-05-08 19:20:00,54.2,-99.9,-100.00,North,-999,-999.0,-999.0,34,-99.99,,,-99.99,customPerl,2013-05-09 00:20:00,
2013-05-08 19:25:00,53.9,-99.9,-100.00,North,-999,-999.0,-999.0,35,-99.99,,,-99.99,customPerl,2013-05-09 00:25:00,
2013-05-08 19:30:00,53.7,-99.9,-100.00,North,-999,-999.0,-999.0,34,-99.99,,,-99.99,customPerl,2013-05-09 00:30:00,
2013-05-08 19:40:00,53.2,-99.9,-100.00,North,-999,-999.0,-999.0,35,-99.99,,,-99.99,customPerl,2013-05-09 00:40:00,
2013-05-08 19:45:00,53.2,-99.9,-100.00,North,-999,-999.0,-999.0,36,-99.99,,,-99.99,customPerl,2013-05-09 00:45:00,
2013-05-08 19:50:00,53.0,-99.9,-100.00,North,-999,-999.0,-999.0,35,-99.99,,,-99.99,customPerl,2013-05-09 00:50:00,
2013-05-08 19:55:00,53.2,-99.9,-100.00,North,-999,-999.0,-999.0,35,-99.99,,,-99.99,customPerl,2013-05-09 00:55:00,
2013-05-08 20:00:00,52.9,-99.9,-100.00,North,-999,-999.0,-999.0,36,-99.99,,,-99.99,customPerl,2013-05-09 01:00:00,
2013-05-08 20:05:00,52.6,-99.9,-100.00,North,-999,-999.0,-999.0,35,-99.99,,,-99.99,customPerl,2013-05-09 01:05:00,
2013-05-08 20:10:00,52.4,-99.9,-100.00,North,-999,-999.0,-999.0,34,-99.99,,,-99.99,customPerl,2013-05-09 01:10:00,
2013-05-08 20:15:00,52.0,-99.9,-100.00,North,-999,-999.0,-999.0,35,-99.99,,,-99.99,customPerl,2013-05-09 01:15:00,
2013-05-08 20:20:00,51.7,-99.9,-100.00,North,-999,-999.0,-999.0,35,-99.99,,,-99.99,customPerl,2013-05-09 01:20:00,
2013-05-08 20:25:00,51.3,-99.9,-100.00,North,-999,-999.0,-999.0,36,-99.99,,,-99.99,customPerl,2013-05-09 01:25:00,
2013-05-08 20:30:00,51.1,-99.9,-100.00,North,-999,-999.0,-999.0,36,-99.99,,,-99.99,customPerl,2013-05-09 01:30:00,
2013-05-08 20:35:00,50.9,-99.9,-100.00,North,-999,-999.0,-999.0,36,-99.99,,,-99.99,customPerl,2013-05-09 01:35:00,
2013-05-08 20:40:00,50.5,-99.9,-100.00,North,-999,-999.0,-999.0,37,-99.99,,,-99.99,customPerl,2013-05-09 01:40:00,
2013-05-08 20:45:00,50.5,-99.9,-100.00,North,-999,-999.0,-999.0,37,-99.99,,,-99.99,customPerl,2013-05-09 01:45:00,
2013-05-08 20:50:00,50.3,-99.9,-100.00,North,-999,-999.0,-999.0,37,-99.99,,,-99.99,customPerl,2013-05-09 01:50:00,
2013-05-08 20:55:00,50.1,-99.9,-100.00,North,-999,-999.0,-999.0,38,-99.99,,,-99.99,customPerl,2013-05-09 01:55:00,
2013-05-08 21:00:00,49.7,-99.9,-100.00,North,-999,-999.0,-999.0,39,-99.99,,,-99.99,customPerl,2013-05-09 02:00:00,
2013-05-08 21:05:00,49.7,-99.9,-100.00,North,-999,-999.0,-999.0,39,-99.99,,,-99.99,customPerl,2013-05-09 02:05:00,
2013-05-08 21:10:00,49.7,-99.9,-100.00,North,-999,-999.0,-999.0,39,-99.99,,,-99.99,customPerl,2013-05-09 02:10:00,
2013-05-08 21:15:00,49.4,-99.9,-100.00,North,-999,-999.0,-999.0,40,-99.99,,,-99.99,customPerl,2013-05-09 02:15:00,
2013-05-08 21:20:00,48.8,-99.9,-100.00,North,-999,-999.0,-999.0,40,-99.99,,,-99.99,customPerl,2013-05-09 02:20:00,
2013-05-08 21:25:00,48.8,-99.9,-100.00,North,-999,-999.0,-999.0,41,-99.99,,,-99.99,customPerl,2013-05-09 02:25:00,
2013-05-08 21:30:00,48.3,-99.9,-100.00,North,-999,-999.0,-999.0,41,-99.99,,,-99.99,customPerl,2013-05-09 02:30:00,
2013-05-08 21:35:00,48.0,-99.9,-100.00,North,-999,-999.0,-999.0,43,-99.99,,,-99.99,customPerl,2013-05-09 02:35:00,
2013-05-08 21:40:00,47.8,-99.9,-100.00,North,-999,-999.0,-999.0,43,-99.99,,,-99.99,customPerl,2013-05-09 02:40:00,
2013-05-08 21:45:00,47.8,-99.9,-100.00,North,-999,-999.0,-999.0,43,-99.99,,,-99.99,customPerl,2013-05-09 02:45:00,
2013-05-08 21:50:00,47.5,-99.9,-100.00,North,-999,-999.0,-999.0,44,-99.99,,,-99.99,customPerl,2013-05-09 02:50:00,
2013-05-08 21:55:00,47.2,-99.9,-100.00,North,-999,-999.0,-999.0,45,-99.99,,,-99.99,customPerl,2013-05-09 02:55:00,
2013-05-08 22:00:00,46.7,-99.9,-100.00,North,-999,-999.0,-999.0,46,-99.99,,,-99.99,customPerl,2013-05-09 03:00:00,
2013-05-08 22:05:00,46.4,-99.9,-100.00,North,-999,-999.0,-999.0,47,-99.99,,,-99.99,customPerl,2013-05-09 03:05:00,
2013-05-08 22:10:00,46.4,-99.9,-100.00,North,-999,-999.0,-999.0,48,-99.99,,,-99.99,customPerl,2013-05-09 03:10:00,
2013-05-08 22:15:00,46.1,-99.9,-100.00,North,-999,-999.0,-999.0,49,-99.99,,,-99.99,customPerl,2013-05-09 03:15:00,
2013-05-08 22:20:00,45.7,-99.9,-100.00,North,-999,-999.0,-999.0,47,-99.99,,,-99.99,customPerl,2013-05-09 03:20:00,
2013-05-08 22:25:00,45.7,-99.9,-100.00,North,-999,-999.0,-999.0,46,-99.99,,,-99.99,customPerl,2013-05-09 03:25:00,
2013-05-08 22:30:00,44.8,-99.9,-100.00,North,-999,-999.0,-999.0,46,-99.99,,,-99.99,customPerl,2013-05-09 03:30:00,
2013-05-08 22:35:00,44.8,-99.9,-100.00,North,-999,-999.0,-999.0,47,-99.99,,,-99.99,customPerl,2013-05-09 03:35:00,
2013-05-08 22:40:00,44.7,-99.9,-100.00,North,-999,-999.0,-999.0,47,-99.99,,,-99.99,customPerl,2013-05-09 03:40:00,
2013-05-08 22:45:00,44.5,-99.9,-100.00,North,-999,-999.0,-999.0,47,-99.99,,,-99.99,customPerl,2013-05-09 03:45:00,
2013-05-08 22:50:00,43.9,-99.9,-100.00,North,-999,-999.0,-999.0,48,-99.99,,,-99.99,customPerl,2013-05-09 03:50:00,
2013-05-08 22:55:00,43.6,-99.9,-100.00,North,-999,-999.0,-999.0,48,-99.99,,,-99.99,customPerl,2013-05-09 03:55:00,
2013-05-08 23:00:00,43.7,-99.9,-100.00,North,-999,-999.0,-999.0,49,-99.99,,,-99.99,customPerl,2013-05-09 04:00:00,
2013-05-08 23:05:00,43.9,-99.9,-100.00,North,-999,-999.0,-999.0,49,-99.99,,,-99.99,customPerl,2013-05-09 04:05:00,
2013-05-08 23:10:00,43.4,-99.9,-100.00,North,-999,-999.0,-999.0,49,-99.99,,,-99.99,customPerl,2013-05-09 04:10:00,
2013-05-08 23:15:00,42.7,-99.9,-100.00,North,-999,-999.0,-999.0,49,-99.99,,,-99.99,customPerl,2013-05-09 04:15:00,
2013-05-08 23:20:00,42.8,-99.9,-100.00,North,-999,-999.0,-999.0,50,-99.99,,,-99.99,customPerl,2013-05-09 04:20:00,
2013-05-08 23:25:00,42.6,-99.9,-100.00,North,-999,-999.0,-999.0,50,-99.99,,,-99.99,customPerl,2013-05-09 04:25:00,
2013-05-08 23:30:00,42.5,-99.9,-100.00,North,-999,-999.0,-999.0,49,-99.99,,,-99.99,customPerl,2013-05-09 04:30:00,
2013-05-08 23:35:00,42.2,-99.9,-100.00,North,-999,-999.0,-999.0,50,-99.99,,,-99.99,customPerl,2013-05-09 04:35:00,
2013-05-08 23:40:00,41.8,-99.9,-100.00,North,-999,-999.0,-999.0,50,-99.99,,,-99.99,customPerl,2013-05-09 04:40:00,
2013-05-08 23:45:00,42.0,-99.9,-100.00,North,-999,-999.0,-999.0,50,-99.99,,,-99.99,customPerl,2013-05-09 04:45:00,
2013-05-08 23:50:00,41.6,-99.9,-100.00,North,-999,-999.0,-999.0,51,-99.99,,,-99.99,customPerl,2013-05-09 04:50:00,
2013-05-08 23:55:00,41.6,-99.9,-100.00,North,-999,-999.0,-999.0,51,-99.99,,,-99.99,customPerl,2013-05-09 04:55:00,